Regional Weather Roundup
Issued by NWS

Home | Current Version | Previous Version | Text Only | Print | Product List | Glossary Off
Versions: 1 2 3 4 5 6 7 8 9 10 11 12 13 14 15 16 17 18 19 20 21 22 23 24 25 26 27 28 29 30 31 32 33 34 35 36 37 38 39 40 41 42 43 44 45 46 47 48 49 50

000
ASUS43 KDTX 030101
RWRMI
MICHIGAN HOURLY REGIONAL WEATHER ROUNDUP
NATIONAL WEATHER SERVICE DETROIT/PONTIAC MI
900 PM EDT TUE SEP 02 2014

NOTE: "FAIR" INDICATES FEW OR NO CLOUDS BELOW 12,000 FEET WITH NO
SIGNIFICANT WEATHER AND/OR OBSTRUCTION TO VISIBILITY.

MIZ047>049-052>055-059>063-066>070-074>076-081>083-030200-
SOUTHEAST LOWER MICHIGAN

CITY           SKY/WX    TMP DP  RH WIND       PRES   REMARKS
ADRIAN         PTCLDY    69  62  78 CALM      29.94R
ALMA           CLEAR     63  59  87 CALM      29.91R
ANN ARBOR      CLEAR     65  60  84 CALM      29.92R
BAD AXE        CLEAR     61  58  92 CALM      29.90R
CARO           CLEAR     61  60  97 CALM      29.90R
DETROIT CITY   CLEAR     71  60  68 CALM      29.91R
DETROIT        PTCLDY    71  59  65 W3        29.92R
FLINT          CLEAR     68  58  70 CALM      29.91R
GROSSE ILE     PTCLDY    68  63  83 CALM      29.91R
HILLSDALE      CLEAR     65  64  96 CALM      29.94R
HOWELL         CLEAR     67  60  76 CALM      29.92R

CITY           SKY/WX    TMP DP  RH WIND       PRES   REMARKS
JACKSON        CLEAR     65  60  84 CALM      29.93R
LAMBERTVILLE   PTCLDY    70  64  83 CALM      29.93R
LANSING        CLEAR     68  57  68 CALM      29.92R
LAPEER         FAIR      63  60  88 CALM      29.92R
MASON          CLEAR     64  59  82 CALM      29.92R HAZE
MONROE         PTCLDY    66  64  94 CALM      29.91R
MT. CLEMENS    CLEAR     68  58  70 NW2       29.90R
PONTIAC        PTCLDY    69  59  70 CALM      29.91R
PORT HOPE        N/A     63  55  75 SW5       29.88R
PORT HURON     CLEAR     61  61 100 MISG      29.91R
TRI CITIES     CLEAR     71  57  61 CALM      29.90R
TROY           CLEAR     74  57  55 CALM      29.93R
SAGINAW HB     CLEAR     68  59  73 CALM      29.89R
$$
MIZ043>046-050>051-056>058-064>065-071>073-077>080-030200-
SOUTHWEST LOWER MICHIGAN

CITY           SKY/WX    TMP DP  RH WIND       PRES   REMARKS
BATTLE CREEK   CLEAR     69  60  73 CALM      29.93R
BENTON HARBOR  CLEAR     66  63  90 CALM      29.91R
BIG RAPIDS     CLEAR     64  59  84 CALM      29.90R
COLDWATER      CLEAR     67  63  85 CALM      29.93R
FREMONT        FAIR      64  55  71 CALM      29.90R
HOLLAND        CLEAR     69  62  78 CALM      29.91R
GRAND RAPIDS   PTCLDY    71  60  68 W3        29.91R
IONIA          FAIR      68  58  71 W5        29.90R
KALAMAZOO      CLEAR     70  59  68 CALM      29.92R
LUDINGTON      CLEAR     69  63  83 SW3       29.90R
MARSHALL       CLEAR     65  59  82 CALM      29.92R
MOUNT PLEASANT CLEAR     64  60  87 CALM      29.90R
MUSKEGON       CLEAR     68  60  75 CALM      29.91R
SOUTH HAVEN    CLEAR     68  65  92 CALM      29.92R
$$
MIZ016>042-030200-
NORTHERN LOWER MICHIGAN

CITY           SKY/WX    TMP DP  RH WIND       PRES   REMARKS
ALPENA         CLEAR     62  57  83 CALM      29.87R
BEAVER ISLAND  CLEAR     62  58  88 SW3       29.87S
BELLAIRE       CLEAR     63  59  86 CALM      29.87R
CADILLAC       CLEAR     63  57  81 CALM      29.91R
CHARLEVOIX     CLEAR     66  59  79 SW9       29.89S
FRANKFORT      CLEAR     68  62  81 CALM      29.88R
GAYLORD        CLEAR     63  55  75 CALM      29.89R
GRAYLING       CLEAR     61  59  94 CALM      29.91R
HARBOR SPRINGS CLEAR     65  59  82 W7        29.88R
HOUGHTON LAKE  CLEAR     67  57  70 W3        29.90R
MANISTEE       CLEAR     68  57  68 CALM      29.89R
OSCODA         CLEAR     63  59  87 CALM      29.87R
PELLSTON       PTCLDY    64  58  80 W6        29.87R
ROGERS CITY    CLEAR     62  57  84 CALM      29.87R
TRAVERSE CITY  PTCLDY    68  57  68 SW6       29.87R
$$
MIZ007>008-015-030200-
EASTERN UPPER MICHIGAN

CITY           SKY/WX    TMP DP  RH WIND       PRES   REMARKS
KINROSS        PTCLDY    63  59  88 CALM      29.85R
MACKINAC ISLAN PTCLDY    62  56  80 W6        29.85R
NEWBERRY       CLEAR     57  56  97 W6        29.86R
S. S. MARIE    PTCLDY    59  55  87 NW5       29.84R
$$
MIZ004>006-011>014-085-030200-
CENTRAL UPPER MICHIGAN

CITY           SKY/WX    TMP DP  RH WIND       PRES   REMARKS
MANISTIQUE     CLEAR     60  59  96 CALM      29.85R
ESCANABA       CLEAR     63  55  77 CALM      29.84R
MENOMINEE      CLEAR     63  57  82 CALM      29.84S
SAWYER-GWINN   CLEAR     66  54  63 CALM      29.85R
$$
MIZ001>003-009>011-084-030200-
WESTERN UPPER MICHIGAN

CITY           SKY/WX    TMP DP  RH WIND       PRES   REMARKS
IRON MOUNTAIN  CLEAR     61  54  77 CALM      29.85R
HOUGHTON       MOCLDY    65  49  56 W13       29.82R
COPPER HARBOR    N/A     67  49  52 VRB6      29.78S
$$

ABBREVIATIONS USED IN REMARKS
   TC - TEMPERATURE IN CELSIUS
  WCI - WIND CHILL INDEX
   HX - HEAT INDEX
  VSB - VISIBILITY




USA.gov is the U.S. government's official web portal to all federal, state and local government web resources and services.